• In Latvia
  • List of Countries
  • For 7 days
  • Water Temperature
  • Satellite Maps
  • Weather Map
  • Weather Widgets
  • user-avatar
    Login

    Hourly Weather Panika

    Today, 24 September, Monday

    Time Temperature Precipitation Wind Pressure Humidity
    00:00 +8°C° 0 mm 3 mps 744 mmHg 86%
    01:00 +8°C° 0 mm 3 mps 744 mmHg 88%
    02:00 +7°C° 0 mm 2 mps 744 mmHg 93%
    03:00 +6°C° 0 mm 2 mps 744 mmHg 94%
    04:00 +6°C° 0 mm 2 mps 744 mmHg 95%
    05:00 +6°C° 0 mm 2 mps 744 mmHg 95%
    06:00 +7°C° 0 mm 2 mps 744 mmHg 90%
    07:00 +8°C° 0 mm 3 mps 744 mmHg 85%
    08:00 +9°C° 0 mm 3 mps 744 mmHg 80%
    09:00 +11°C° 0 mm 3 mps 743 mmHg 75%
    10:00 +12°C° 0 mm 3 mps 743 mmHg 70%
    11:00 +13°C° 0 mm 4 mps 743 mmHg 65%
    12:00 +12°C° 0.6 mm 4 mps 742 mmHg 71%
    13:00 +12°C° 0.6 mm 4 mps 742 mmHg 77%
    14:00 +11°C° 0.6 mm 4 mps 741 mmHg 83%
    15:00 +10°C° 1.4 mm 4 mps 740 mmHg 85%
    16:00 +8°C° 1.4 mm 4 mps 739 mmHg 87%
    17:00 +7°C° 1.4 mm 5 mps 738 mmHg 89%
    18:00 +7°C° 2.1 mm 5 mps 737 mmHg 90%
    19:00 +7°C° 2.1 mm 5 mps 736 mmHg 91%
    20:00 +7°C° 2.1 mm 6 mps 734 mmHg 91%
    21:00 +8°C° 1 mm 5 mps 734 mmHg 91%
    22:00 +8°C° 1 mm 5 mps 733 mmHg 91%
    23:00 +9°C° 1 mm 5 mps 732 mmHg 91%

    Tomorrow, 25 September, Tuesday

    Time Temperature Precipitation Wind Pressure Humidity
    00:00 +10°C° 0.3 mm 4 mps 732 mmHg 91%
    01:00 +8°C° 0.3 mm 4 mps 731 mmHg 91%
    02:00 +8°C° 0.3 mm 4 mps 731 mmHg 90%
    03:00 +7°C° 0.2 mm 4 mps 732 mmHg 91%
    04:00 +7°C° 0.2 mm 4 mps 732 mmHg 91%
    05:00 +7°C° 0.2 mm 5 mps 732 mmHg 91%
    06:00 +7°C° 0.3 mm 5 mps 733 mmHg 91%
    07:00 +7°C° 0.3 mm 5 mps 733 mmHg 90%
    08:00 +7°C° 0.3 mm 6 mps 734 mmHg 89%
    09:00 +7°C° 0.5 mm 6 mps 735 mmHg 88%
    10:00 +7°C° 0.5 mm 6 mps 736 mmHg 87%
    11:00 +6°C° 0.5 mm 7 mps 737 mmHg 86%
    12:00 +6°C° 0.5 mm 7 mps 738 mmHg 86%
    13:00 +6°C° 0.5 mm 7 mps 738 mmHg 86%
    14:00 +5°C° 0.5 mm 7 mps 739 mmHg 85%
    15:00 +5°C° 0.6 mm 7 mps 740 mmHg 85%
    16:00 +5°C° 0.6 mm 7 mps 741 mmHg 84%
    17:00 +5°C° 0.6 mm 7 mps 742 mmHg 83%
    18:00 +5°C° 0.2 mm 7 mps 743 mmHg 83%
    19:00 +4°C° 0.2 mm 7 mps 743 mmHg 83%
    20:00 +4°C° 0.2 mm 7 mps 744 mmHg 82%
    21:00 +4°C° 0 mm 6 mps 745 mmHg 81%
    22:00 +3°C° 0 mm 6 mps 746 mmHg 80%
    23:00 +3°C° 0 mm 6 mps 747 mmHg 79%

    Day after tomorrow, 26 September, Wednesday

    Time Temperature Precipitation Wind Pressure Humidity
    00:00 +2°C° 0 mm 5 mps 748 mmHg 78%
    01:00 +1°C° 0 mm 5 mps 748 mmHg 77%
    02:00 +1°C° 0 mm 5 mps 749 mmHg 75%
    03:00 0°C° 0 mm 5 mps 750 mmHg 75%
    04:00 0°C° 0 mm 5 mps 751 mmHg 75%
    05:00 -1°C° 0 mm 4 mps 751 mmHg 75%
    06:00 0°C° 0 mm 4 mps 752 mmHg 71%
    07:00 +1°C° 0 mm 4 mps 752 mmHg 68%
    08:00 +2°C° 0 mm 5 mps 753 mmHg 64%
    09:00 +4°C° 0 mm 4 mps 753 mmHg 60%
    10:00 +6°C° 0 mm 4 mps 753 mmHg 56%
    11:00 +7°C° 0 mm 4 mps 753 mmHg 52%
    12:00 +8°C° 0 mm 4 mps 753 mmHg 53%
    13:00 +10°C° 0 mm 4 mps 753 mmHg 53%
    14:00 +10°C° 0 mm 4 mps 752 mmHg 54%
    15:00 +10°C° 0 mm 4 mps 752 mmHg 60%
    16:00 +8°C° 0 mm 4 mps 751 mmHg 66%
    17:00 +8°C° 0 mm 3 mps 750 mmHg 72%
    18:00 +7°C° 0 mm 4 mps 750 mmHg 71%
    19:00 +7°C° 0 mm 5 mps 749 mmHg 70%
    20:00 +7°C° 0 mm 5 mps 748 mmHg 69%
    21:00 +5°C° 0.5 mm 6 mps 747 mmHg 72%
    22:00 +5°C° 0.5 mm 7 mps 746 mmHg 76%
    23:00 +4°C° 0.5 mm 7 mps 745 mmHg 80%

    27 September, Thursday

    Time Temperature Precipitation Wind Pressure Humidity
    00:00 +4°C° 1.5 mm 7 mps 744 mmHg 83%
    01:00 +4°C° 1.5 mm 7 mps 743 mmHg 85%
    02:00 +4°C° 1.5 mm 7 mps 742 mmHg 87%
    03:00 +4°C° 0.9 mm 7 mps 741 mmHg 88%
    04:00 +5°C° 0.9 mm 6 mps 740 mmHg 89%
    05:00 +5°C° 0.9 mm 6 mps 740 mmHg 90%
    06:00 +5°C° 0.3 mm 6 mps 740 mmHg 87%
    07:00 +7°C° 0.3 mm 5 mps 740 mmHg 84%
    08:00 +7°C° 0.3 mm 5 mps 740 mmHg 81%
    09:00 +8°C° 0.1 mm 5 mps 740 mmHg 76%
    10:00 +9°C° 0.1 mm 6 mps 740 mmHg 71%
    11:00 +10°C° 0.1 mm 6 mps 740 mmHg 65%
    12:00 +9°C° 0.3 mm 6 mps 740 mmHg 64%
    13:00 +9°C° 0.3 mm 6 mps 740 mmHg 63%
    14:00 +9°C° 0.3 mm 6 mps 740 mmHg 62%
    15:00 +9°C° 0.2 mm 5 mps 741 mmHg 66%
    16:00 +8°C° 0.2 mm 5 mps 741 mmHg 70%
    17:00 +7°C° 0.2 mm 4 mps 741 mmHg 74%
    18:00 +7°C° 0 mm 4 mps 741 mmHg 76%
    19:00 +7°C° 0 mm 3 mps 742 mmHg 77%
    20:00 +5°C° 0 mm 3 mps 742 mmHg 79%
    21:00 +5°C° 0 mm 3 mps 742 mmHg 80%
    22:00 +5°C° 0 mm 4 mps 743 mmHg 82%
    23:00 +4°C° 0 mm 4 mps 743 mmHg 83%

    28 September, Friday

    Time Temperature Precipitation Wind Pressure Humidity
    00:00 +4°C° 0 mm 4 mps 743 mmHg 84%
    01:00 +4°C° 0 mm 4 mps 743 mmHg 85%
    02:00 +3°C° 0 mm 4 mps 744 mmHg 86%
    03:00 +3°C° 0 mm 4 mps 744 mmHg 87%
    04:00 +3°C° 0 mm 3 mps 744 mmHg 88%
    05:00 +3°C° 0 mm 3 mps 744 mmHg 89%
    06:00 +3°C° 0 mm 3 mps 744 mmHg 87%
    07:00 +4°C° 0 mm 3 mps 744 mmHg 85%
    08:00 +5°C° 0 mm 3 mps 743 mmHg 82%
    09:00 +5°C° 0.7 mm 3 mps 743 mmHg 84%
    10:00 +6°C° 0.7 mm 2 mps 742 mmHg 86%
    11:00 +6°C° 0.7 mm 2 mps 741 mmHg 88%
    12:00 +5°C° 1.9 mm 3 mps 740 mmHg 90%
    13:00 +5°C° 1.9 mm 3 mps 739 mmHg 91%
    14:00 +5°C° 1.9 mm 3 mps 738 mmHg 93%
    15:00 +5°C° 1.1 mm 3 mps 738 mmHg 92%
    16:00 +5°C° 1.1 mm 3 mps 738 mmHg 92%
    17:00 +5°C° 1.1 mm 3 mps 737 mmHg 92%
    18:00 +5°C° 0.5 mm 3 mps 738 mmHg 92%
    19:00 +4°C° 0.5 mm 3 mps 739 mmHg 93%
    20:00 +4°C° 0.5 mm 3 mps 739 mmHg 93%
    21:00 +4°C° 0 mm 3 mps 740 mmHg 92%
    22:00 +3°C° 0 mm 3 mps 741 mmHg 92%
    23:00 +3°C° 0 mm 3 mps 742 mmHg 92%

    29 September, Saturday

    Time Temperature Precipitation Wind Pressure Humidity
    00:00 +3°C° 0 mm 3 mps 743 mmHg 92%
    01:00 +3°C° 0 mm 2 mps 744 mmHg 93%
    02:00 +2°C° 0 mm 2 mps 745 mmHg 93%
    03:00 +2°C° 0 mm 2 mps 746 mmHg 93%
    04:00 +1°C° 0 mm 2 mps 746 mmHg 93%
    05:00 +1°C° 0 mm 2 mps 747 mmHg 93%
    06:00 +1°C° 0 mm 2 mps 748 mmHg 88%
    07:00 +2°C° 0 mm 2 mps 748 mmHg 83%
    08:00 +3°C° 0 mm 2 mps 749 mmHg 78%
    09:00 +3°C° 0 mm 3 mps 750 mmHg 73%
    10:00 +4°C° 0 mm 3 mps 750 mmHg 67%
    11:00 +7°C° 0 mm 3 mps 751 mmHg 61%
    12:00 +7°C° 0 mm 3 mps 751 mmHg 59%
    13:00 +8°C° 0 mm 3 mps 751 mmHg 56%
    14:00 +8°C° 0 mm 3 mps 752 mmHg 54%
    15:00 +7°C° 0 mm 3 mps 752 mmHg 59%
    16:00 +6°C° 0 mm 2 mps 752 mmHg 64%
    17:00 +5°C° 0 mm 2 mps 753 mmHg 70%
    18:00 +4°C° 0 mm 2 mps 753 mmHg 73%
    19:00 +3°C° 0 mm 2 mps 754 mmHg 76%
    20:00 +2°C° 0 mm 2 mps 755 mmHg 79%
    21:00 +2°C° 0 mm 2 mps 755 mmHg 81%
    22:00 +1°C° 0 mm 2 mps 756 mmHg 83%
    23:00 +1°C° 0 mm 2 mps 756 mmHg 85%
    Show more